�������l�o���
Date,Time,MP-1(��Sv/h),MP-2(��Sv/h),MP-3(��Sv/h),MP-4(��Sv/h),MP-5(��Sv/h),MP-6(��Sv/h),MP-7(��Sv/h),MP-8(��Sv/h),����,����(m/s),���J
2020/04/12,00:00,0.704,1.026,0.681,1.232,0.887,0.401,0.700,0.662,��쐼,6.9,��
2020/04/12,00:10,0.705,1.025,0.679,1.232,0.887,0.402,0.698,0.663,��쐼,6.3,��
2020/04/12,00:20,0.705,1.024,0.682,1.234,0.889,0.403,0.700,0.662,��쐼,6.4,��
2020/04/12,00:30,0.703,1.023,0.680,1.232,0.889,0.402,0.698,0.660,��쐼,6.7,��
2020/04/12,00:40,0.705,1.026,0.680,1.234,0.887,0.402,0.699,0.662,��쐼,6.7,��
2020/04/12,00:50,0.705,1.023,0.681,1.234,0.889,0.402,0.700,0.661,��쐼,6.6,��
2020/04/12,01:00,0.705,1.023,0.681,1.233,0.886,0.402,0.699,0.662,��쐼,7.4,��
2020/04/12,01:10,0.706,1.024,0.682,1.233,0.888,0.400,0.701,0.663,��쐼,7.2,��
2020/04/12,01:20,0.705,1.023,0.682,1.233,0.889,0.401,0.699,0.662,��쐼,7.0,��
2020/04/12,01:30,0.705,1.022,0.681,1.233,0.889,0.402,0.701,0.663,��쐼,6.2,��
2020/04/12,01:40,0.705,1.024,0.679,1.234,0.886,0.402,0.700,0.663,��쐼,5.8,��
2020/04/12,01:50,0.705,1.021,0.681,1.233,0.889,0.403,0.700,0.662,�쐼,4.9,�L
2020/04/12,02:00,0.707,1.022,0.681,1.234,0.888,0.401,0.699,0.663,���쐼,3.2,�L
2020/04/12,02:10,0.705,1.023,0.680,1.234,0.890,0.403,0.699,0.663,��,2.9,�L
2020/04/12,02:20,0.705,1.022,0.679,1.234,0.888,0.403,0.699,0.664,���k��,3.6,�L
2020/04/12,02:30,0.705,1.020,0.680,1.235,0.886,0.403,0.699,0.664,��,3.9,�L
2020/04/12,02:40,0.706,1.022,0.683,1.234,0.886,0.401,0.698,0.663,��,5.4,�L
2020/04/12,02:50,0.707,1.022,0.679,1.235,0.885,0.401,0.699,0.663,��,4.8,�L
2020/04/12,03:00,0.706,1.021,0.681,1.234,0.889,0.403,0.701,0.661,���k��,4.6,�L
2020/04/12,03:10,0.705,1.021,0.679,1.234,0.889,0.401,0.700,0.664,��,3.9,�L
2020/04/12,03:20,0.706,1.023,0.680,1.235,0.887,0.402,0.699,0.662,��,4.0,�L
2020/04/12,03:30,0.706,1.022,0.680,1.233,0.888,0.402,0.699,0.663,��,5.1,�L
2020/04/12,03:40,0.705,1.021,0.683,1.232,0.888,0.401,0.699,0.663,��,5.2,�L
2020/04/12,03:50,0.706,1.023,0.681,1.236,0.886,0.402,0.700,0.662,��,5.8,�L
2020/04/12,04:00,0.703,1.019,0.680,1.233,0.885,0.403,0.698,0.662,��,6.3,�L
2020/04/12,04:10,0.703,1.019,0.680,1.235,0.884,0.401,0.699,0.662,��,6.5,�L
2020/04/12,04:20,0.703,1.018,0.680,1.233,0.884,0.401,0.700,0.663,��,6.1,�L
2020/04/12,04:30,0.703,1.020,0.678,1.234,0.884,0.401,0.701,0.662,���k��,6.2,�L
2020/04/12,04:40,0.702,1.016,0.677,1.235,0.885,0.400,0.699,0.662,��,5.3,�L
2020/04/12,04:50,0.702,1.017,0.681,1.232,0.882,0.401,0.699,0.663,���k��,5.4,�L
2020/04/12,05:00,0.702,1.017,0.679,1.233,0.885,0.400,0.699,0.662,���k��,6.4,�L
2020/04/12,05:10,0.701,1.016,0.678,1.231,0.884,0.401,0.701,0.664,���k��,6.4,�L
2020/04/12,05:20,0.701,1.017,0.677,1.232,0.881,0.399,0.699,0.662,���k��,7.2,�L
2020/04/12,05:30,0.702,1.015,0.676,1.233,0.881,0.401,0.699,0.663,���k��,6.4,�L
2020/04/12,05:40,0.702,1.016,0.676,1.231,0.883,0.399,0.699,0.662,���k��,7.2,�L
2020/04/12,05:50,0.701,1.014,0.678,1.230,0.882,0.400,0.700,0.663,���k��,6.3,��
2020/04/12,06:00,0.702,1.016,0.677,1.232,0.881,0.401,0.700,0.661,���k��,6.7,��
2020/04/12,06:10,0.700,1.015,0.676,1.231,0.880,0.399,0.698,0.661,�k��,5.4,��
2020/04/12,06:20,0.699,1.014,0.676,1.231,0.879,0.400,0.700,0.663,�k��,6.7,�L
2020/04/12,06:30,0.701,1.016,0.677,1.229,0.883,0.400,0.698,0.660,�k��,5.8,�L
2020/04/12,06:40,0.701,1.014,0.677,1.234,0.882,0.400,0.698,0.662,�k��,6.1,�L
2020/04/12,06:50,0.701,1.015,0.677,1.232,0.882,0.400,0.698,0.663,���k��,5.0,�L
2020/04/12,07:00,0.702,1.016,0.678,1.232,0.879,0.400,0.698,0.663,���k��,4.3,�L
2020/04/12,07:10,0.702,1.016,0.679,1.231,0.883,0.401,0.697,0.661,�k��,4.4,�L
2020/04/12,07:20,0.703,1.017,0.678,1.231,0.881,0.399,0.699,0.662,�k��,3.3,�L
2020/04/12,07:30,0.701,1.016,0.677,1.232,0.881,0.398,0.697,0.661,�k��,1.9,�L
2020/04/12,07:40,0.703,1.017,0.677,1.235,0.881,0.402,0.699,0.663,�k�k��,1.7,�L
2020/04/12,07:50,0.703,1.016,0.680,1.230,0.880,0.400,0.697,0.663,�k�k��,2.0,�L
2020/04/12,08:00,0.703,1.018,0.677,1.234,0.881,0.400,0.699,0.661,�k�k��,2.0,�L
2020/04/12,08:10,0.702,1.018,0.677,1.232,0.884,0.399,0.698,0.663,�k�k��,1.9,�L
2020/04/12,08:20,0.702,1.017,0.678,1.230,0.882,0.399,0.698,0.663,�k,1.1,�L
2020/04/12,08:30,0.701,1.020,0.676,1.232,0.884,0.400,0.698,0.663,�k�k��,0.6,�L
2020/04/12,08:40,0.701,1.018,0.677,1.231,0.882,0.400,0.698,0.665,-,CALM,�L
2020/04/12,08:50,0.703,1.018,0.678,1.231,0.883,0.399,0.698,0.662,-,CALM,�L
2020/04/12,09:00,0.702,1.016,0.678,1.232,0.882,0.401,0.697,0.661,���k��,0.6,�L
2020/04/12,09:10,0.703,1.015,0.677,1.231,0.881,0.401,0.696,0.660,-,CALM,�L
2020/04/12,09:20,0.705,1.020,0.679,1.230,0.881,0.401,0.697,0.664,���k��,1.1,�L
2020/04/12,09:30,0.704,1.018,0.680,1.232,0.881,0.402,0.698,0.662,���쓌,1.4,�L
2020/04/12,09:40,0.704,1.020,0.679,1.232,0.883,0.400,0.697,0.663,���k��,2.0,��
2020/04/12,09:50,0.706,1.020,0.679,1.230,0.881,0.400,0.698,0.663,���k��,1.9,��
2020/04/12,10:00,0.706,1.022,0.681,1.230,0.882,0.401,0.697,0.663,��,1.7,��
2020/04/12,10:10,0.706,1.022,0.679,1.234,0.885,0.401,0.696,0.659,���쓌,2.6,��
2020/04/12,10:20,0.706,1.016,0.680,1.234,0.885,0.400,0.695,0.663,�쓌,2.3,��
2020/04/12,10:30,0.706,1.019,0.679,1.232,0.885,0.399,0.698,0.660,���쓌,3.4,��
2020/04/12,10:40,0.705,1.018,0.679,1.232,0.883,0.399,0.697,0.661,���쓌,3.4,��
2020/04/12,10:50,0.703,1.018,0.679,1.232,0.881,0.401,0.698,0.660,���쓌,3.3,��
2020/04/12,11:00,0.703,1.019,0.680,1.234,0.882,0.399,0.697,0.660,���쓌,4.2,��
2020/04/12,11:10,0.703,1.018,0.678,1.234,0.883,0.399,0.698,0.660,��,4.0,��
2020/04/12,11:20,0.703,1.018,0.680,1.232,0.881,0.398,0.697,0.660,���쓌,4.4,��
2020/04/12,11:30,0.704,1.022,0.679,1.234,0.884,0.399,0.698,0.658,��,3.9,��
2020/04/12,11:40,0.703,1.019,0.680,1.232,0.883,0.396,0.696,0.660,���쓌,4.7,��
2020/04/12,11:50,0.703,1.018,0.679,1.232,0.884,0.399,0.698,0.659,���쓌,4.6,��
2020/04/12,12:00,0.705,1.019,0.679,1.235,0.886,0.398,0.698,0.661,���쓌,5.2,�L
2020/04/12,12:10,0.701,1.020,0.678,1.232,0.886,0.397,0.697,0.659,���쓌,4.8,��
2020/04/12,12:20,0.704,1.019,0.679,1.234,0.884,0.398,0.698,0.659,�쓌,4.5,�L
2020/04/12,12:30,0.702,1.021,0.678,1.233,0.883,0.398,0.698,0.661,���쓌,4.7,�L
2020/04/12,12:40,0.705,1.022,0.677,1.235,0.885,0.398,0.698,0.661,���쓌,4.3,�L
2020/04/12,12:50,0.704,1.019,0.680,1.235,0.884,0.399,0.697,0.661,���쓌,5.1,�L
2020/04/12,13:00,0.705,1.023,0.681,1.235,0.884,0.402,0.698,0.659,���쓌,5.6,��
2020/04/12,13:10,0.706,1.024,0.680,1.234,0.885,0.400,0.697,0.660,���쓌,4.7,��
2020/04/12,13:20,0.703,1.020,0.682,1.237,0.886,0.401,0.700,0.660,��,5.5,��
2020/04/12,13:30,0.702,1.022,0.678,1.235,0.885,0.400,0.697,0.660,���쓌,5.7,��
2020/04/12,13:40,0.704,1.022,0.680,1.234,0.884,0.401,0.698,0.659,��,5.5,��
2020/04/12,13:50,0.706,1.023,0.677,1.235,0.884,0.401,0.697,0.661,���쓌,4.9,��
2020/04/12,14:00,0.705,1.024,0.680,1.236,0.884,0.401,0.697,0.660,��,5.0,��
2020/04/12,14:10,0.702,1.024,0.681,1.235,0.885,0.401,0.698,0.660,��,5.5,��
2020/04/12,14:20,0.704,1.023,0.679,1.235,0.883,0.401,0.698,0.659,���쓌,5.2,��
2020/04/12,14:30,0.703,1.023,0.679,1.233,0.887,0.400,0.697,0.659,���쓌,5.5,��
2020/04/12,14:40,0.703,1.020,0.678,1.236,0.887,0.401,0.699,0.662,���k��,4.7,��
2020/04/12,14:50,0.704,1.022,0.678,1.236,0.887,0.400,0.698,0.660,���쓌,4.2,��
2020/04/12,15:00,0.702,1.023,0.679,1.236,0.888,0.400,0.697,0.661,���쓌,3.4,��
2020/04/12,15:10,0.703,1.025,0.678,1.237,0.886,0.401,0.697,0.661,���쓌,2.6,��
2020/04/12,15:20,0.703,1.023,0.681,1.233,0.886,0.400,0.698,0.659,��,4.3,��
2020/04/12,15:30,0.706,1.025,0.679,1.233,0.888,0.399,0.696,0.660,���쓌,3.1,��
2020/04/12,15:40,0.705,1.025,0.680,1.234,0.887,0.402,0.697,0.657,�쓌,3.7,��
2020/04/12,15:50,0.706,1.029,0.683,1.236,0.887,0.402,0.698,0.660,���쓌,3.4,��
2020/04/12,16:00,0.706,1.026,0.682,1.237,0.887,0.401,0.697,0.662,���쓌,2.9,��
2020/04/12,16:10,0.705,1.026,0.682,1.237,0.885,0.401,0.698,0.660,���쓌,3.3,��
2020/04/12,16:20,0.707,1.028,0.682,1.236,0.886,0.401,0.698,0.661,�쓌,2.6,��
2020/04/12,16:30,0.704,1.024,0.680,1.235,0.888,0.401,0.698,0.661,���쓌,3.4,��
2020/04/12,16:40,0.705,1.027,0.681,1.237,0.888,0.401,0.699,0.661,���쓌,3.4,��
2020/04/12,16:50,0.705,1.025,0.679,1.237,0.888,0.402,0.697,0.663,���쓌,2.6,��
2020/04/12,17:00,0.708,1.026,0.680,1.232,0.886,0.402,0.697,0.662,���쓌,2.9,��
2020/04/12,17:10,0.705,1.026,0.679,1.232,0.886,0.400,0.698,0.664,��쓌,3.4,��
2020/04/12,17:20,0.707,1.025,0.680,1.235,0.885,0.401,0.696,0.664,��쓌,2.3,��
2020/04/12,17:30,0.706,1.025,0.679,1.236,0.886,0.400,0.697,0.662,��,1.9,��
2020/04/12,17:40,0.707,1.025,0.682,1.235,0.887,0.401,0.699,0.663,��쓌,3.5,��
2020/04/12,17:50,0.704,1.023,0.681,1.234,0.887,0.401,0.697,0.665,��쓌,2.9,��
2020/04/12,18:00,0.708,1.024,0.681,1.235,0.887,0.401,0.698,0.664,��,1.8,��
2020/04/12,18:10,0.706,1.027,0.683,1.235,0.888,0.400,0.699,0.663,��쓌,1.9,��
2020/04/12,18:20,0.704,1.023,0.681,1.236,0.889,0.401,0.700,0.664,��,1.9,��
2020/04/12,18:30,0.707,1.026,0.681,1.238,0.889,0.400,0.699,0.663,��쓌,2.0,��
2020/04/12,18:40,0.707,1.026,0.682,1.231,0.890,0.401,0.699,0.662,��,1.7,��
2020/04/12,18:50,0.705,1.023,0.680,1.236,0.887,0.398,0.700,0.661,��쓌,1.5,��
2020/04/12,19:00,0.707,1.026,0.682,1.236,0.890,0.401,0.699,0.662,��,1.5,��
2020/04/12,19:10,0.706,1.024,0.681,1.235,0.888,0.400,0.700,0.661,��쓌,1.7,��
2020/04/12,19:20,0.706,1.025,0.681,1.235,0.888,0.401,0.700,0.662,��,1.4,��
2020/04/12,19:30,0.705,1.024,0.680,1.235,0.889,0.401,0.700,0.662,-,CALM,��
2020/04/12,19:40,0.706,1.023,0.680,1.235,0.887,0.401,0.700,0.661,��쓌,1.2,��
2020/04/12,19:50,0.706,1.024,0.682,1.235,0.889,0.401,0.700,0.662,��쐼,0.8,��
2020/04/12,20:00,0.706,1.024,0.680,1.234,0.889,0.401,0.700,0.664,��쐼,1.1,��
2020/04/12,20:10,0.706,1.024,0.681,1.231,0.887,0.401,0.699,0.661,�쐼,0.8,��
2020/04/12,20:20,0.704,1.023,0.681,1.233,0.887,0.401,0.701,0.661,�쐼,0.6,��
2020/04/12,20:30,0.705,1.025,0.680,1.235,0.887,0.401,0.700,0.664,���쐼,0.8,��
2020/04/12,20:40,0.705,1.025,0.680,1.237,0.888,0.402,0.700,0.661,-,CALM,��
2020/04/12,20:50,0.706,1.024,0.681,1.236,0.888,0.402,0.699,0.661,���k��,0.8,��
2020/04/12,21:00,0.705,1.022,0.679,1.235,0.886,0.401,0.700,0.661,�k��,0.8,��
2020/04/12,21:10,0.704,1.024,0.679,1.235,0.887,0.401,0.700,0.661,�k��,1.5,��
2020/04/12,21:20,0.703,1.023,0.679,1.235,0.886,0.402,0.699,0.663,�k��,2.2,��
2020/04/12,21:30,0.705,1.021,0.680,1.235,0.886,0.401,0.701,0.663,�k��,2.6,��
2020/04/12,21:40,0.706,1.022,0.679,1.238,0.886,0.400,0.701,0.662,�k�k��,2.6,��
2020/04/12,21:50,0.705,1.022,0.678,1.235,0.888,0.400,0.698,0.663,�k�k��,3.1,��
2020/04/12,22:00,0.705,1.024,0.681,1.236,0.887,0.400,0.700,0.662,�k�k��,3.1,��
2020/04/12,22:10,0.707,1.023,0.681,1.234,0.888,0.401,0.701,0.661,�k,3.4,��
2020/04/12,22:20,0.708,1.021,0.683,1.236,0.888,0.401,0.702,0.663,�k,4.2,��
2020/04/12,22:30,0.706,1.022,0.682,1.236,0.886,0.402,0.702,0.662,�k�k��,5.2,��
2020/04/12,22:40,0.705,1.023,0.681,1.236,0.889,0.401,0.702,0.663,�k,4.4,��
2020/04/12,22:50,0.705,1.023,0.682,1.236,0.888,0.400,0.701,0.663,�k,4.6,��
2020/04/12,23:00,0.706,1.023,0.681,1.236,0.888,0.401,0.701,0.661,�k�k��,5.4,��
2020/04/12,23:10,0.706,1.022,0.680,1.235,0.887,0.401,0.700,0.663,�k�k��,6.2,��
2020/04/12,23:20,0.705,1.023,0.683,1.237,0.887,0.400,0.700,0.664,�k�k��,6.8,��
2020/04/12,23:30,0.705,1.022,0.680,1.235,0.888,0.401,0.702,0.663,�k�k��,7.2,��
2020/04/12,23:40,0.706,1.023,0.681,1.236,0.887,0.400,0.701,0.661,�k�k��,7.2,��
2020/04/12,23:50,0.704,1.023,0.681,1.236,0.885,0.400,0.701,0.662,�k�k��,7.1,��
